Location: M?digepalle
(16.1753°N, 80.3496°E)
Time: 07:12:17
(UTC+00:00)

Cosmos 1709 Rocket - Pass Details

Date: 29 October 2020
Orbit: 949 x 1001 km, 82.9° (Epoch: 27 November)

Event Time Altitude Azimuth Distance (km) Brightness Sun altitude
Rises 13:31:40 0° 6° (N) 3,717 6.9 -20.1°
Reaches altitude 10° 13:34:19 10° 12° (NNE) 2,766 6.2 -20.8°
Maximum altitude 13:40:23 46° 85° (E) 1,304 4.2 -22.2°
Drops below altitude 10° 13:46:23 10° 157° (SSE) 2,746 6.2 -23.6°
Sets 13:49:00 0° 163° (SSE) 3,687 6.9 -24.2°
